BAW695 LOWW-EGLL

Flight info

Callsign BAW695
Flight time N/A
Altitude 36000
Route BUWUT DCT DITIS DCT IPDUL DCT OKG DCT VELIS DCT SWALM DCT TIVUN DCT BREDA DCT ABNED L980 LOGAN
Aircraft A320/M-SDE3FGHIRWY/LB1

Departure

Time N/A
Airport Vienna International Airport (LOWW)

Arrival

Time 2026-05-04 16:46
Airport London Heathrow Airport (EGLL)
Time Latitude Longitude Altitude Speed Heading
2026-05-04 16:19 51.81069 2.59251 34485 ft 405 kts 260°
2026-05-04 16:19 51.80448 2.50271 33556 ft 399 kts 260°
2026-05-04 16:20 51.79530 2.37102 32238 ft 388 kts 260°
2026-05-04 16:20 51.78911 2.28514 31392 ft 382 kts 260°
2026-05-04 16:21 51.78042 2.15886 30164 ft 377 kts 261°
2026-05-04 16:22 51.77575 2.07501 29338 ft 372 kts 261°
2026-05-04 16:22 51.76873 1.95152 28214 ft 364 kts 261°
2026-05-04 16:23 51.76217 1.84366 27235 ft 358 kts 262°
2026-05-04 16:24 51.75236 1.68672 25749 ft 347 kts 261°
2026-05-04 16:25 51.74747 1.60966 24984 ft 343 kts 261°
2026-05-04 16:26 51.73752 1.45392 22825 ft 352 kts 262°
2026-05-04 16:26 51.72981 1.33604 21240 ft 352 kts 262°
2026-05-04 16:27 51.72462 1.25737 20182 ft 353 kts 262°
2026-05-04 16:28 51.71680 1.13933 18697 ft 351 kts 262°
2026-05-04 16:28 51.70897 1.02337 17259 ft 343 kts 262°
2026-05-04 16:29 51.69884 0.87700 15135 ft 310 kts 263°
2026-05-04 16:30 51.69170 0.77469 13891 ft 308 kts 263°
2026-05-04 16:31 51.68680 0.70601 13021 ft 308 kts 263°
2026-05-04 16:31 51.67953 0.60377 11771 ft 305 kts 263°
2026-05-04 16:32 51.67215 0.50301 10702 ft 297 kts 263°
2026-05-04 16:33 51.66748 0.43888 10040 ft 284 kts 262°
2026-05-04 16:33 51.66288 0.37623 9000 ft 279 kts 262°
2026-05-04 16:34 51.65830 0.31494 8221 ft 274 kts 262°
2026-05-04 16:34 51.65606 0.28490 7864 ft 274 kts 262°
2026-05-04 16:35 51.64938 0.19602 7163 ft 246 kts 262°
2026-05-04 16:35 51.64741 0.11669 7025 ft 238 kts 272°
2026-05-04 16:36 51.64845 0.09002 7026 ft 239 kts 272°
2026-05-04 16:36 51.65037 0.03727 7024 ft 237 kts 271°
2026-05-04 16:37 51.65229 -0.01576 7051 ft 237 kts 271°
2026-05-04 16:37 51.65320 -0.04217 7047 ft 236 kts 271°
2026-05-04 16:37 51.65503 -0.09517 7054 ft 238 kts 271°
2026-05-04 16:38 51.65666 -0.14838 7037 ft 238 kts 264°
2026-05-04 16:39 51.62678 -0.20295 6525 ft 235 kts 197°
2026-05-04 16:39 51.59548 -0.21578 6166 ft 234 kts 182°
2026-05-04 16:40 51.56571 -0.19670 5382 ft 243 kts 131°
2026-05-04 16:40 51.54607 -0.15379 4706 ft 223 kts 125°
2026-05-04 16:41 51.52337 -0.12589 4268 ft 213 kts 180°
2026-05-04 16:41 51.48501 -0.15630 3482 ft 205 kts 205°
2026-05-04 16:42 51.46526 -0.20865 2887 ft 184 kts 271°
2026-05-04 16:43 51.46526 -0.24925 2406 ft 179 kts 272°
2026-05-04 16:43 51.46522 -0.28726 1948 ft 162 kts 273°
2026-05-04 16:43 51.46519 -0.30497 1729 ft 156 kts 273°
2026-05-04 16:44 51.46508 -0.37207 921 ft 147 kts 273°
2026-05-04 16:45 51.46500 -0.40441 487 ft 142 kts 274°
2026-05-04 16:46 51.46489 -0.45091 91 ft 119 kts 270°
2026-05-04 16:46 51.46504 -0.46606 92 ft 23 kts 294°
2026-05-04 16:47 51.46594 -0.46857 88 ft 11 kts 340°
2026-05-04 16:47 51.46758 -0.46858 86 ft 14 kts
2026-05-04 16:48 51.47098 -0.46863 86 ft 18 kts 360°
2026-05-04 16:48 51.47210 -0.46861 87 ft 14 kts 11°
2026-05-04 16:49 51.47239 -0.46573 86 ft 10 kts 90°
2026-05-04 16:49 51.47187 -0.46366 87 ft 8 kts 147°
2026-05-04 16:50 51.47215 -0.46246 89 ft 2 kts 56°
2026-05-04 16:50 51.47218 -0.46241 89 ft 0 kts 55°